Theta_e
320 323 327 327 328 328 331 331 330 335 329 328 333 332 328 329 326 320 319 320 319 321 322 323 323 323 324 326 329 336 335 331 333 332 337 336 327 330 332 330 332 331 331 332 333 335 334 334 335 336 337 337 337 337 337 337 337 338 338 338 338 338 338 338 338 338 338 339 339 339 338 338 337 337 337 336 336 336 336 336 336 337 337 337 338 338 338 338 338 338 337 337 337 337 337 336 335
323 327 328 327 329 325 333 336 335 337 333 330 330 332 331 327 323 323 324 323 323 320 322 324 323 325 326 326 325 329 328 325 327 330 331 327 326 331 331 331 332 331 331 332 333 333 334 333 334 335 335 336 336 336 337 336 336 337 337 338 338 338 338 337 337 338 338 338 337 337 336 336 336 336 336 335 335 334 334 334 335 335 336 337 337 337 337 337 336 336 335 335 335 335 335 335 335
326 329 329 328 328 328 338 337 336 333 325 325 327 333 328 322 325 330 328 324 325 319 321 321 319 324 325 324 322 323 329 327 324 327 326 323 328 331 330 331 331 332 331 331 332 332 332 331 331 333 335 335 332 332 333 333 334 335 336 336 336 336 336 336 336 336 336 336 335 335 334 334 334 334 334 333 333 332 332 332 333 334 334 335 335 335 335 334 333 333 333 333 333 333 333 333 333
327 329 327 328 328 335 347 337 341 335 322 327 329 336 335 327 328 332 331 327 327 321 319 319 319 320 320 324 323 321 328 329 323 326 330 325 327 331 330 330 330 331 330 330 330 329 329 328 326 327 332 330 327 328 329 329 331 334 334 334 334 334 335 335 335 334 334 334 333 332 332 332 332 332 332 331 330 330 330 330 331 332 333 333 333 332 332 331 331 331 331 331 332 331 331 330 331
325 327 323 328 329 334 340 329 338 333 324 334 332 338 343 335 330 332 334 327 325 323 320 319 320 318 316 322 322 323 328 328 320 320 327 326 327 329 329 330 330 330 329 328 327 328 326 326 324 324 328 325 324 326 327 328 330 333 333 332 332 333 333 334 333 333 332 332 331 330 330 330 330 329 329 328 328 327 328 328 329 330 331 331 330 329 329 329 329 329 329 329 329 328 328 327 326
325 326 323 324 325 327 333 327 331 332 330 335 332 337 340 334 328 330 332 325 322 323 320 318 319 317 318 320 319 321 324 324 321 320 321 323 326 328 330 329 329 329 328 327 326 326 324 324 323 325 328 326 325 327 328 329 330 331 331 331 331 331 331 331 330 330 330 329 329 329 328 328 327 326 325 324 324 324 324 324 325 326 327 327 327 326 325 325 324 324 323 322 320 320 319 318 316
323 324 327 327 325 328 337 335 334 338 333 329 333 335 331 329 325 325 326 322 320 320 317 318 318 316 318 319 318 318 317 320 321 321 319 321 326 327 330 328 329 329 327 327 326 325 323 322 321 325 329 328 327 328 330 330 330 330 330 330 330 330 329 329 329 329 329 329 328 326 325 324 322 321 320 320 319 318 317 317 318 319 320 321 321 320 319 317 316 313 311 309 308 307 306 306 305
323 327 330 333 332 329 333 335 334 335 330 325 329 330 327 326 324 323 323 320 319 318 316 319 319 317 318 316 322 321 314 318 319 319 318 320 325 327 330 328 329 328 328 327 326 325 322 321 320 326 329 329 329 329 330 329 329 329 329 330 329 329 328 329 328 328 327 326 323 320 319 317 316 315 315 314 313 310 309 308 308 308 309 311 312 312 311 308 306 303 301 300 300 300 299 299 299
321 325 327 331 328 324 330 331 328 328 329 326 324 326 325 323 323 323 323 322 319 319 319 321 319 317 319 317 325 322 314 319 319 318 318 320 325 327 329 328 329 328 328 327 326 323 319 319 319 326 329 329 330 328 329 328 329 329 329 329 328 329 328 328 327 325 323 320 318 316 314 313 312 311 309 308 306 304 303 302 302 301 301 302 303 304 303 302 301 299 299 299 298 298 298 298 298
321 322 325 330 325 322 327 326 327 327 330 330 323 324 323 322 323 321 322 322 319 319 319 318 316 315 318 320 326 320 316 318 317 319 318 321 325 326 329 327 328 328 327 327 326 323 319 318 318 325 328 328 328 327 328 328 328 328 328 328 327 327 327 326 323 320 317 316 315 313 311 309 308 306 304 303 302 301 300 300 300 299 299 299 299 300 300 300 300 300 299 299 298 298 299 299 298
327 330 329 326 325 324 324 326 331 333 333 328 325 325 320 320 321 319 319 320 319 318 316 316 316 319 317 320 328 318 314 317 317 319 318 322 325 326 327 327 328 327 327 327 325 325 322 319 317 322 326 327 327 327 328 327 327 327 327 327 326 327 326 323 319 315 313 311 309 307 306 304 303 302 301 300 300 299 299 299 299 299 299 299 299 299 300 300 300 300 299 299 299 298 299 299 298
327 336 337 330 330 329 327 332 334 334 333 327 328 326 317 317 319 319 320 320 321 319 318 317 317 321 317 323 329 315 312 316 317 318 318 322 325 325 326 326 327 327 327 327 326 325 324 320 318 322 324 326 326 326 327 326 327 326 326 326 325 326 323 319 315 312 308 306 303 302 301 300 300 300 299 299 299 299 298 299 299 300 300 299 300 300 300 300 300 299 298 298 298 298 298 298 298
332 336 338 332 333 331 327 334 335 332 332 332 330 320 314 319 321 322 323 320 320 320 321 319 317 317 318 325 325 317 317 316 317 318 319 321 324 325 325 325 326 326 326 326 326 325 323 321 319 321 323 324 325 326 326 326 325 324 324 323 322 320 316 312 309 307 304 302 300 299 299 299 299 299 299 299 299 298 298 298 298 299 299 299 299 299 300 299 299 298 298 298 298 298 298 298 298
331 337 336 327 329 331 328 331 333 327 327 334 329 317 314 319 321 322 321 319 321 321 319 315 315 317 319 322 326 332 325 315 317 318 319 322 324 324 324 325 325 325 326 325 325 324 323 321 319 319 320 321 322 324 324 323 321 320 318 316 314 311 308 306 304 302 301 300 299 299 299 299 299 299 299 299 299 298 298 298 298 298 298 298 298 298 298 298 298 298 298 297 298 298 297 298 298
324 338 337 328 328 328 326 326 325 322 322 329 324 316 316 317 319 322 320 318 321 318 313 312 314 317 320 320 327 332 319 314 317 318 319 322 322 322 323 323 324 324 324 324 324 323 322 320 319 318 318 318 318 319 319 317 315 313 311 308 306 304 303 303 302 301 300 299 298 299 298 299 299 299 299 299 299 298 298 298 298 297 297 297 297 297 297 297 297 297 297 297 297 297 297 297 297
327 341 333 327 330 325 324 324 321 321 327 334 324 315 317 319 316 318 318 316 318 315 313 316 314 315 320 321 321 316 312 315 317 317 319 320 320 320 321 322 323 323 323 323 322 321 320 319 317 317 317 315 314 315 314 312 309 308 307 304 303 301 301 300 301 301 300 299 298 299 299 299 299 299 299 298 298 298 298 298 297 297 297 297 297 297 296 297 296 296 296 296 296 296 296 296 296
329 334 327 326 329 325 326 326 322 322 331 337 328 318 318 321 318 314 313 312 317 316 317 320 314 313 318 318 313 309 312 315 316 318 317 317 318 317 318 320 321 321 322 322 321 320 319 318 316 316 316 314 312 312 310 307 305 306 305 302 301 300 299 299 300 300 299 299 298 299 299 298 298 298 298 297 297 297 297 297 297 297 297 297 297 297 297 296 296 296 296 296 296 296 296 296 296
326 328 323 322 328 328 330 332 327 321 324 326 322 319 318 321 322 315 313 315 317 316 318 319 315 314 312 310 310 311 313 314 315 316 314 313 313 313 315 317 319 320 320 320 320 320 319 318 316 315 315 313 311 309 308 305 304 305 304 302 300 299 299 299 299 299 298 298 298 298 298 298 298 297 297 297 297 297 297 297 297 297 297 297 297 296 296 296 296 296 296 296 296 296 296 296 296
329 330 322 324 331 329 328 332 328 321 320 321 319 318 317 318 318 314 315 319 318 316 317 317 317 317 313 309 309 311 312 312 315 313 312 310 309 311 312 314 317 318 319 320 320 319 319 318 317 315 314 313 310 308 306 303 303 303 304 303 300 299 299 298 298 298 298 298 298 297 297 297 297 296 296 296 296 297 297 297 297 296 297 297 297 297 296 296 296 296 296 296 295 295 295 295 295
330 328 324 332 332 325 326 326 325 321 319 318 318 317 316 318 316 313 316 319 318 316 315 314 318 319 317 316 309 308 311 310 312 312 310 309 309 310 311 313 314 316 318 319 319 319 319 318 317 315 314 313 310 307 305 302 302 302 303 302 300 299 298 298 298 298 298 298 298 297 297 297 296 296 296 296 296 296 296 296 297 297 297 297 297 296 296 296 295 295 295 295 295 295 295 295 295
327 323 326 336 327 322 324 323 323 321 316 315 317 316 316 318 315 314 316 317 317 315 316 315 317 318 318 324 313 306 308 308 309 310 309 308 308 309 310 312 314 315 316 316 317 318 318 317 316 315 314 313 310 306 304 301 301 301 302 301 299 298 298 298 297 297 297 297 297 297 297 296 296 295 295 296 296 296 296 297 297 297 297 296 296 296 295 295 294 294 294 294 294 294 294 294 294
324 323 326 330 322 320 320 322 323 319 315 315 317 317 316 315 314 316 316 316 316 316 318 317 317 318 317 322 314 306 307 308 307 308 308 308 307 308 309 310 311 313 313 314 316 316 317 316 315 315 313 313 310 306 303 301 300 300 300 300 299 298 297 297 297 297 297 297 297 297 297 296 295 295 296 296 296 296 296 297 297 296 296 296 295 295 295 294 294 294 294 294 294 294 294 294 295
322 323 324 325 321 320 319 320 321 318 316 316 317 316 315 314 314 317 317 316 316 315 318 319 317 314 311 314 312 310 311 310 308 307 307 308 307 307 307 308 309 310 311 313 314 315 315 315 315 314 313 313 311 307 304 301 300 299 299 299 298 297 297 297 297 297 297 297 297 297 297 296 296 296 296 296 296 296 296 297 296 296 296 296 295 295 295 294 294 294 294 294 294 294 294 294 295
321 323 324 324 321 321 319 318 319 318 317 317 316 313 314 315 315 315 315 315 314 313 314 317 314 308 308 315 318 317 313 309 308 307 308 308 308 308 308 308 308 308 309 310 311 312 313 314 314 313 312 312 311 308 305 302 300 299 298 298 298 297 297 297 297 297 297 297 297 297 296 296 296 296 296 296 296 296 296 296 296 295 295 296 295 295 295 295 295 295 295 295 295 295 295 295 295
321 322 324 322 320 321 320 318 318 318 317 316 314 314 315 314 313 313 314 314 313 313 314 315 314 311 312 316 319 315 311 309 307 307 308 308 308 309 308 307 306 306 307 308 308 309 311 312 313 312 311 311 311 308 305 302 300 298 298 297 297 297 297 297 297 297 297 297 297 297 296 296 296 295 295 296 295 295 295 295 296 296 295 296 296 296 296 296 296 296 296 296 296 296 296 295 295
323 321 322 321 319 319 318 316 315 316 317 315 314 316 316 313 313 313 314 314 313 314 315 315 314 315 314 313 315 313 312 310 307 306 307 307 308 307 307 306 306 306 306 307 307 307 308 309 310 311 310 310 310 309 305 302 300 298 298 297 297 297 297 297 297 297 297 297 297 297 297 296 296 296 295 295 295 294 295 295 295 295 296 296 296 296 296 296 297 297 296 297 296 296 296 295 294
321 320 321 318 316 316 314 314 315 315 316 316 315 316 315 313 313 314 315 315 315 315 317 316 314 315 313 311 311 310 311 310 307 307 307 306 306 306 306 306 306 306 306 306 306 306 306 307 308 309 309 309 308 308 306 302 300 298 297 297 297 297 297 297 296 297 297 297 297 297 297 296 296 295 295 294 294 294 295 295 295 295 296 296 296 296 296 296 296 297 296 296 296 296 296 295 294
315 315 317 317 315 315 313 313 314 313 314 316 314 314 315 313 312 314 314 314 315 315 317 316 314 315 313 311 310 309 309 307 305 306 307 306 306 306 306 306 307 306 306 307 307 306 305 306 307 307 308 307 307 307 305 303 300 298 297 297 297 297 297 297 296 296 296 296 297 297 296 296 296 295 294 294 294 294 295 295 295 295 296 296 295 296 296 296 296 297 296 296 296 296 295 294 294
313 314 315 316 315 314 313 313 315 314 314 316 313 313 314 314 315 315 313 314 313 313 315 315 313 314 313 311 309 309 307 305 304 305 306 307 307 307 307 308 308 306 307 307 306 305 306 306 306 306 306 306 306 306 304 302 300 298 297 297 297 297 296 296 296 296 296 296 296 296 296 296 296 295 294 294 294 294 295 295 295 295 295 295 295 295 296 296 296 296 296 296 296 295 294 294 293
314 315 314 314 315 315 314 314 315 313 314 316 313 311 314 315 315 314 313 313 312 313 315 314 314 313 313 312 310 310 308 305 305 304 306 308 308 308 308 309 308 307 307 306 305 306 307 306 305 305 304 305 305 304 303 301 299 298 297 297 297 296 296 296 296 296 296 296 296 297 296 296 296 296 294 294 294 294 294 295 295 295 295 295 295 295 295 296 296 296 296 295 295 294 294 293 293
315 313 314 315 315 316 314 314 314 312 314 315 313 312 313 313 314 313 313 313 313 314 315 314 313 313 313 313 311 311 309 306 305 305 306 307 308 308 308 309 308 307 307 306 307 307 306 305 304 304 304 304 304 303 302 301 300 299 298 298 297 296 296 296 296 296 296 295 296 296 296 296 297 297 295 294 293 293 294 294 294 294 294 294 295 294 295 295 295 295 295 295 294 294 293 293 293
321 314 315 317 315 315 314 313 314 313 313 311 312 315 314 312 314 313 313 314 314 315 315 314 313 313 312 312 311 310 309 306 304 305 306 307 308 308 308 309 308 307 307 307 307 306 305 305 304 304 303 303 303 303 302 301 300 299 299 299 297 297 296 296 296 295 295 295 295 296 296 296 297 297 295 294 293 293 293 294 294 294 294 294 294 294 294 295 295 295 295 294 294 294 293 293 293
324 315 315 318 316 314 314 314 316 315 312 311 312 316 315 314 315 315 315 314 314 315 315 314 313 312 311 310 310 309 309 308 307 305 305 307 307 307 308 308 308 308 308 307 307 306 305 305 304 304 303 303 303 302 302 301 300 300 300 299 298 297 296 296 295 295 295 295 295 295 296 296 297 297 296 294 293 293 293 293 293 293 294 294 294 294 294 294 294 295 295 294 293 293 293 292 292
319 314 316 319 316 313 314 316 317 314 313 313 313 312 313 313 314 316 315 313 313 314 314 313 312 311 310 309 309 309 309 309 310 308 306 307 307 307 308 308 308 308 307 307 307 307 306 305 304 304 303 303 302 302 301 301 300 300 299 299 298 297 296 295 295 295 295 294 294 295 295 297 297 297 296 294 293 293 292 292 293 293 293 293 293 293 293 293 293 293 294 293 292 292 292 291 291
315 316 316 317 316 313 314 314 314 314 313 313 313 312 312 312 311 312 312 312 312 312 312 312 311 310 310 310 309 309 310 310 311 309 308 308 307 307 307 308 308 308 308 307 307 307 306 304 304 303 303 302 301 301 300 300 300 300 299 299 298 297 296 296 296 296 296 296 296 295 295 296 297 297 297 295 293 292 292 292 292 292 293 293 292 292 293 293 293 293 293 293 292 292 292 291 291
313 314 314 314 314 312 313 312 312 313 312 311 312 311 311 311 311 311 311 311 311 311 311 310 310 310 310 310 310 310 310 311 311 309 309 309 308 308 308 308 308 308 308 307 306 306 305 305 303 302 302 301 301 300 300 299 299 299 298 298 298 297 297 297 297 297 297 297 297 296 296 296 297 297 296 295 292 292 292 292 292 292 292 293 292 293 293 293 293 293 293 292 292 292 291 291 291
312 312 313 313 312 311 311 311 311 311 311 311 312 312 311 310 311 311 311 311 312 311 311 311 311 311 311 311 311 311 311 311 311 310 309 309 309 309 308 308 308 307 307 306 306 306 305 304 303 302 301 301 300 300 300 299 298 298 298 298 298 297 297 298 298 298 298 298 297 297 296 296 296 296 296 295 292 291 291 291 292 292 292 292 292 293 293 293 293 293 293 292 291 291 291 291 291
312 313 313 313 312 312 311 311 311 311 310 311 311 312 311 310 311 311 311 311 311 312 311 312 312 311 312 312 312 312 311 312 311 311 309 308 309 309 308 308 307 306 306 306 305 306 305 304 303 302 301 300 300 300 300 299 299 299 299 298 298 298 298 298 298 298 298 298 297 297 297 296 295 295 295 294 292 291 291 291 291 291 292 292 292 291 292 292 292 293 293 292 291 291 291 291 291
314 314 313 313 313 312 311 312 312 311 312 315 315 313 311 311 311 311 311 311 311 311 312 312 312 313 313 312 312 312 312 312 311 311 310 307 307 308 308 307 306 307 307 306 306 305 304 303 302 302 301 300 300 300 300 300 299 299 299 299 298 298 297 298 298 298 298 298 297 298 297 296 295 295 294 294 292 291 291 291 291 291 292 291 291 290 291 292 292 292 292 292 292 290 290 291 291
314 314 313 313 312 312 313 313 314 312 312 316 316 312 310 310 311 311 311 311 311 311 312 312 312 313 313 312 313 312 312 312 311 312 311 309 307 306 305 305 305 306 306 305 305 304 303 303 302 301 301 300 300 300 300 300 299 298 298 298 298 297 297 297 297 297 297 298 297 297 297 296 296 294 294 293 292 291 291 291 291 291 291 291 291 291 291 292 292 293 292 292 292 291 290 290 290
314 314 313 313 313 313 313 313 315 314 313 315 314 311 312 313 312 312 311 310 310 310 311 311 312 312 312 312 312 312 312 311 311 312 311 311 312 306 303 305 305 304 304 305 304 304 303 302 302 301 301 300 300 300 299 299 298 298 297 297 297 296 296 296 296 296 296 297 297 297 297 296 296 295 293 292 292 291 291 290 291 291 290 290 290 291 292 292 292 292 292 292 291 291 290 289 289
313 315 314 313 313 313 313 314 314 315 317 316 314 314 316 317 316 315 315 312 311 311 310 310 310 310 311 311 311 311 311 311 311 311 310 311 312 307 302 303 304 302 304 305 305 304 303 302 301 301 300 300 300 299 299 299 298 298 297 297 296 296 295 295 296 296 296 296 296 296 296 296 296 295 294 293 292 291 291 290 290 290 290 290 290 291 291 292 292 291 291 291 290 290 290 290 289
314 319 320 315 313 314 315 315 314 318 321 316 314 317 317 316 316 318 318 316 314 313 312 311 311 311 311 312 312 311 311 311 311 311 312 310 311 310 305 302 302 303 305 305 304 304 303 302 301 300 300 300 299 299 299 299 298 298 298 297 297 296 296 296 297 296 296 296 296 296 296 296 295 295 295 293 292 291 291 290 290 290 290 290 290 290 291 291 291 291 290 290 289 289 289 289 289
316 319 323 321 317 317 315 314 315 318 319 315 316 317 317 316 315 316 318 316 316 314 313 312 311 311 312 312 312 312 312 312 312 313 312 311 311 311 306 302 304 306 306 304 303 303 303 302 301 300 300 299 299 299 299 298 298 298 298 298 297 297 297 297 296 296 295 295 295 295 295 295 295 295 295 294 292 291 290 290 290 290 289 289 290 290 290 290 290 290 289 289 289 288 289 289 289
317 316 318 320 319 317 317 317 318 317 316 316 316 315 318 319 315 315 315 314 316 314 313 313 311 312 312 312 312 312 312 311 312 312 310 311 311 307 303 303 306 306 304 303 303 303 302 301 300 300 299 299 299 299 299 299 298 298 298 298 297 298 298 297 296 295 295 295 294 294 294 294 294 294 294 293 292 291 290 290 290 290 289 289 289 290 290 290 290 290 290 289 289 288 288 288 288
317 315 316 319 320 320 319 319 319 320 319 317 316 315 318 319 316 317 315 314 318 315 313 312 311 312 312 312 313 312 313 313 312 311 310 311 307 303 303 304 304 303 302 303 302 302 301 300 300 299 299 299 298 299 298 298 298 298 298 297 297 297 297 296 296 295 295 294 294 294 294 294 294 294 293 293 292 291 290 289 289 289 289 289 289 289 289 289 290 290 290 290 289 289 288 287 288
313 315 320 322 323 322 322 323 320 319 319 318 320 317 316 318 318 319 318 317 318 316 315 315 314 315 313 312 313 312 312 313 313 311 314 314 304 300 302 302 301 301 301 301 301 301 300 299 299 298 298 298 298 298 298 298 298 298 298 298 297 297 296 296 295 295 294 294 294 293 293 293 293 294 293 293 292 292 290 289 289 289 289 288 289 289 289 289 290 289 289 289 288 288 288 287 287
312 318 323 321 322 322 323 324 320 318 320 320 321 317 315 317 316 316 317 317 316 315 317 320 321 321 316 313 312 312 312 312 312 311 315 320 311 305 303 299 299 300 299 300 300 300 300 299 298 298 297 298 298 297 298 298 298 298 298 298 298 297 297 296 295 295 294 294 293 293 292 292 292 293 293 293 292 292 291 290 289 288 288 288 288 288 289 289 289 289 288 288 288 288 288 287 287
312 318 318 316 321 321 321 323 319 319 321 317 315 314 313 315 315 315 316 317 317 314 314 317 321 323 319 315 312 313 314 311 311 312 317 323 319 313 307 299 296 297 298 299 299 298 299 298 298 297 297 297 297 297 297 297 297 297 298 297 297 297 296 296 296 295 294 294 293 293 292 292 292 292 292 292 292 292 291 290 289 288 288 288 288 288 288 289 289 289 288 288 288 288 288 288 287
313 316 318 318 320 320 321 324 320 319 320 315 312 315 315 315 317 318 315 313 316 314 312 313 316 318 318 315 312 314 314 310 313 321 325 327 323 317 307 297 295 296 297 297 298 298 298 297 297 297 297 297 297 297 297 297 297 297 297 297 297 296 296 296 296 295 295 294 294 293 293 292 292 292 292 292 292 292 292 291 290 289 288 287 287 287 288 288 288 288 288 288 288 288 288 287 287
312 315 319 318 321 324 323 325 323 320 321 316 311 315 320 318 317 319 316 315 317 318 317 314 312 313 314 313 313 315 313 312 318 327 329 332 332 320 304 296 296 296 296 296 297 297 297 297 297 297 297 297 296 296 296 297 297 297 296 296 296 296 296 296 296 295 295 294 294 294 293 293 292 292 292 292 292 292 292 291 290 289 288 287 287 287 287 287 287 287 287 288 287 287 287 287 286
313 316 319 315 319 324 320 322 323 318 318 317 313 318 322 317 313 315 315 315 315 318 318 313 312 314 314 314 316 315 313 314 318 324 328 333 331 314 298 295 297 296 296 296 296 297 297 297 297 297 297 297 297 296 296 296 296 296 296 296 296 296 296 296 295 295 295 295 294 294 293 293 293 292 292 292 291 291 292 291 290 289 288 287 287 286 287 286 286 286 287 287 287 287 287 286 286
314 314 317 315 316 319 317 321 322 316 315 317 315 318 318 315 315 316 317 316 314 317 315 312 314 315 313 314 316 314 315 318 318 320 323 325 324 311 297 295 297 295 296 296 296 297 297 297 297 297 297 297 296 297 296 296 296 295 296 296 296 296 295 296 295 295 295 294 294 294 294 293 293 292 292 291 291 291 291 291 290 289 288 287 287 286 286 286 286 286 286 286 286 286 286 286 285
315 317 317 313 314 316 317 321 321 316 317 317 316 317 316 316 319 318 319 318 318 321 318 315 317 319 318 319 319 319 321 322 322 323 324 324 327 317 298 294 297 296 296 296 296 297 296 297 297 296 296 296 296 296 296 296 295 295 295 295 295 295 295 295 295 295 294 294 294 294 293 293 293 292 292 291 291 291 291 290 290 289 288 287 286 286 286 286 285 285 286 286 286 286 285 285 285
312 317 315 313 316 318 317 319 319 317 317 319 318 318 315 315 317 316 317 317 318 321 318 316 317 317 320 322 322 325 328 327 325 327 330 330 329 314 297 294 297 297 297 297 297 296 296 296 296 296 296 296 296 296 295 295 295 295 296 295 295 295 295 295 295 295 294 294 294 293 293 293 292 292 291 291 291 290 290 290 289 288 288 287 286 286 286 285 285 285 285 285 285 285 285 285 284
311 311 312 313 315 317 317 319 319 318 317 319 319 319 316 316 316 316 318 319 318 318 317 319 320 318 319 320 320 324 326 324 323 323 322 321 318 305 296 297 298 297 298 297 296 297 296 296 296 296 297 296 296 296 295 295 296 296 296 295 295 295 295 295 294 294 294 294 294 293 293 292 292 291 291 291 290 290 290 289 289 288 287 287 286 285 285 285 285 285 284 284 285 285 284 284 284
315 313 313 313 312 316 317 315 317 317 316 317 319 318 318 319 317 315 316 316 314 315 318 320 320 316 314 316 317 318 317 317 319 319 315 314 316 307 296 297 300 298 297 297 296 297 296 296 297 297 297 296 296 296 296 296 296 295 295 295 295 295 294 294 294 293 293 293 293 293 292 292 291 291 291 290 290 290 290 289 288 288 287 286 286 285 285 285 284 284 284 284 284 284 284 284 283
316 315 315 314 313 316 316 315 317 317 315 316 318 317 319 322 319 314 313 312 311 316 319 317 315 313 312 313 313 313 312 312 313 314 311 313 321 315 299 297 299 298 297 297 296 297 296 297 297 297 296 296 297 297 297 297 296 295 295 295 295 295 294 294 293 293 293 292 292 292 292 291 291 291 291 290 290 289 289 289 288 287 287 286 286 285 285 285 284 284 284 284 284 284 283 283 283
Wind_Speed
1 1 1 1 2 2 2 4 2 3 2 1 3 1 4 5 2 3 4 3 1 3 3 1 2 3 2 3 7 7 5 7 6 5 4 3 5 20 27 17 18 28 31 28 27 25 23 22 20 19 18 17 16 16 15 14 14 13 13 13 13 13 12 12 12 11 11 11 11 10 9 9 8 8 8 8 8 7 8 8 8 7 7 6 5 7 7 6 7 6 5 4 3 3 2 2 2
1 1 2 1 3 2 1 3 2 3 4 3 4 3 4 3 1 5 8 5 4 4 1 3 3 2 3 2 3 2 3 4 4 4 3 3 8 21 24 16 22 28 30 29 28 27 25 23 21 20 18 18 19 17 16 16 15 14 14 13 13 12 12 11 11 11 10 10 10 9 8 8 7 7 7 7 8 7 8 8 8 8 7 7 6 7 8 7 7 5 4 3 2 2 1 1 1
1 1 2 1 2 3 1 3 2 1 2 3 5 4 3 2 5 8 9 8 7 4 2 1 1 1 4 3 0 2 4 3 3 3 1 7 9 19 26 18 23 27 29 30 28 27 25 23 21 19 16 17 20 18 17 17 16 16 15 14 13 13 12 11 11 11 10 9 9 9 8 7 7 7 7 7 7 7 7 8 9 9 8 7 6 5 3 2 2 2 1 1 1 1 1 1 2
1 1 3 0 1 3 4 3 1 4 1 3 3 6 3 4 8 8 8 8 6 2 2 1 1 1 3 2 2 0 5 4 4 6 2 12 13 19 29 21 24 27 27 29 27 27 24 22 20 19 17 18 20 18 18 17 17 16 15 15 14 14 13 12 12 11 10 10 10 9 9 9 8 7 7 6 7 7 7 8 9 10 10 7 5 4 3 3 3 3 3 3 3 3 3 3 4
1 1 3 2 2 1 3 2 1 3 4 4 2 6 5 7 7 7 6 6 4 1 1 1 1 2 1 4 3 1 5 2 5 11 6 14 16 21 30 24 25 26 26 27 26 25 23 21 20 19 17 19 20 19 19 17 16 16 15 15 15 15 14 13 13 12 12 11 11 11 11 10 10 9 8 8 9 8 8 9 9 9 10 9 7 6 5 5 4 5 5 5 5 5 5 5 6
1 1 3 4 2 1 3 1 2 2 6 5 3 7 7 7 7 7 5 6 4 3 4 2 2 1 1 3 2 3 5 2 3 12 9 12 18 23 31 27 26 27 26 26 25 24 22 21 21 19 16 18 19 19 19 16 16 16 16 16 16 16 15 14 14 14 13 13 13 13 13 12 12 11 10 10 10 9 9 9 9 9 9 9 8 7 6 5 5 5 5 5 5 5 5 5 6
0 1 3 4 2 2 3 3 4 4 5 6 5 7 9 8 4 4 3 3 2 3 3 4 1 2 3 2 2 5 5 4 3 7 9 12 20 25 30 29 28 27 26 25 24 23 22 22 22 19 15 17 18 19 18 16 16 17 17 17 17 16 16 15 15 15 15 15 15 15 14 13 13 12 11 10 9 9 8 8 8 8 8 8 7 6 5 4 4 3 3 3 3 3 3 3 4
3 1 1 3 1 2 3 3 4 4 4 4 5 7 9 7 3 5 4 2 2 3 2 3 1 1 5 1 2 5 5 9 3 4 8 14 22 27 30 31 29 28 26 25 24 22 22 23 23 18 16 16 17 19 18 18 18 18 19 19 18 18 17 17 16 16 16 17 16 15 14 12 11 10 9 8 8 7 7 7 7 8 8 8 8 7 5 4 3 2 2 2 1 1 1 0 1
4 2 1 2 2 1 0 3 4 4 6 6 6 8 9 5 5 6 5 4 2 2 4 4 4 3 5 2 4 5 4 11 7 5 9 17 24 28 31 32 31 30 27 26 24 24 23 24 23 18 17 18 18 18 18 19 20 20 20 20 20 19 18 18 17 17 17 16 15 13 12 11 10 9 8 7 7 6 6 6 6 7 7 8 7 7 5 5 4 4 4 4 4 4 3 3 3
3 3 1 1 2 1 3 3 3 3 6 6 7 10 10 4 6 5 5 5 3 1 5 3 3 4 3 2 6 3 3 11 11 9 12 21 26 28 31 31 31 30 29 27 26 25 24 23 23 20 19 19 18 19 18 19 20 19 19 19 19 19 18 17 17 17 16 15 13 13 11 10 10 9 8 7 7 6 6 6 6 7 7 8 8 8 7 7 7 7 7 7 7 6 6 5 4
2 4 2 2 1 2 4 4 4 5 6 5 7 11 9 5 5 3 3 5 4 3 3 3 2 4 1 4 5 3 4 10 14 13 16 24 27 29 30 30 30 29 29 28 27 26 24 23 23 22 21 21 20 20 20 19 20 19 19 18 18 17 16 17 18 16 15 14 13 12 11 11 9 9 8 7 7 7 7 7 8 8 9 9 8 8 8 9 8 8 8 7 7 7 6 5 5
1 3 3 2 2 3 4 4 5 6 7 5 6 8 2 7 5 4 5 5 3 2 4 4 3 4 2 5 4 4 4 12 16 14 19 26 29 29 30 30 30 29 28 27 27 26 24 24 24 23 23 23 22 21 21 21 20 20 20 19 19 18 17 18 18 16 15 14 13 13 12 11 10 10 9 9 9 9 9 9 9 9 9 9 8 8 8 8 8 7 7 6 6 6 5 5 5
2 1 5 1 3 2 2 3 5 5 7 4 5 5 3 7 5 7 6 4 3 2 7 8 4 3 3 5 4 5 5 14 17 16 22 27 29 30 29 30 29 29 28 27 27 26 25 25 25 25 24 24 24 23 23 23 22 21 20 20 20 20 20 19 18 16 16 15 14 14 13 13 12 12 11 11 11 11 11 11 10 9 9 9 8 8 8 7 6 6 5 5 5 4 4 4 4
2 3 4 1 1 0 2 2 5 2 5 6 4 3 2 3 4 5 6 3 6 5 5 6 6 1 3 3 4 5 5 15 18 19 25 27 29 29 28 28 28 29 28 28 28 27 27 26 26 26 25 25 25 25 25 25 24 22 21 21 21 21 20 19 18 18 17 16 16 15 15 15 14 14 14 14 14 14 13 12 11 10 9 9 8 8 7 6 5 5 4 4 4 3 3 3 2
2 2 4 0 2 2 3 3 3 2 4 6 3 1 2 4 2 3 5 7 8 6 1 2 5 2 3 3 5 6 5 17 21 22 27 27 27 26 26 27 27 28 28 28 28 28 28 28 28 27 27 27 27 27 27 26 25 24 23 23 22 21 20 20 19 19 19 18 18 17 17 17 17 17 16 16 15 14 14 13 12 11 10 10 9 8 7 6 5 5 5 4 4 3 3 3 2
3 3 4 1 2 2 3 4 1 2 5 6 4 1 1 7 2 2 5 5 5 3 1 4 5 2 4 6 6 7 4 20 23 23 27 25 24 23 24 26 27 28 29 29 29 29 29 29 29 29 29 29 29 29 28 27 26 25 24 23 22 21 21 21 20 20 20 20 19 19 18 18 19 18 18 17 15 14 14 14 14 13 12 11 10 9 8 7 6 6 5 5 4 4 4 4 4
3 3 3 2 2 3 4 4 3 3 5 6 6 2 2 7 3 2 2 3 4 3 2 5 3 2 5 4 5 5 9 24 24 24 25 23 23 21 22 24 26 28 30 31 31 31 30 31 30 30 30 30 31 30 29 28 27 26 24 23 22 22 21 22 22 22 21 21 20 19 19 19 19 18 18 17 16 16 16 15 14 13 12 11 10 9 8 7 7 6 5 5 5 4 4 4 4
2 3 2 3 3 4 6 7 6 3 4 5 5 1 5 6 5 2 2 2 4 4 4 5 6 5 3 3 3 4 18 26 26 27 24 22 21 20 22 26 29 31 33 34 34 33 33 33 32 31 32 32 32 31 31 29 28 27 25 24 23 23 23 23 23 23 22 21 20 19 19 19 19 19 19 18 18 17 17 16 15 14 13 12 12 11 10 9 8 7 6 6 5 5 5 5 4
2 3 2 4 6 6 6 7 5 4 4 5 6 3 5 7 4 2 3 8 6 6 6 3 7 10 5 1 3 12 22 26 27 28 25 24 25 24 24 26 30 32 34 37 38 37 36 35 34 34 33 34 34 33 32 30 29 28 26 25 24 24 24 24 24 23 22 21 21 21 20 20 20 20 20 19 19 18 17 16 16 15 14 13 13 12 11 10 9 8 7 7 6 6 5 5 5
2 3 2 6 7 6 6 7 7 7 3 5 8 2 3 7 4 1 3 9 10 10 8 3 7 13 10 4 7 15 20 23 26 27 26 27 28 28 27 28 32 36 40 41 40 39 38 37 36 35 35 35 36 34 33 32 30 29 27 26 25 25 25 25 24 23 23 22 22 22 22 22 21 21 21 20 19 19 18 17 16 16 15 14 12 11 11 10 9 8 8 7 6 6 5 5 4
2 4 5 7 4 4 8 8 9 8 3 4 5 3 4 6 3 2 3 7 14 11 8 11 12 13 12 6 9 15 17 19 22 24 24 25 27 29 30 33 36 38 39 37 38 41 41 40 39 38 37 37 37 36 35 34 32 30 28 27 26 26 26 25 25 24 24 24 24 23 24 23 23 23 22 21 20 20 19 19 17 16 15 14 13 12 11 10 9 9 8 7 7 6 5 4 4
2 5 8 7 5 4 9 7 7 5 2 3 4 5 6 4 2 5 6 6 15 10 7 13 14 13 11 8 10 12 13 15 18 21 22 24 27 29 31 32 32 31 32 36 41 43 43 43 41 40 39 39 39 38 36 35 34 32 31 29 28 28 27 27 27 26 26 26 25 25 26 25 25 24 24 23 22 22 21 20 18 17 15 14 13 12 11 11 9 9 8 7 6 5 4 4 3
3 6 6 7 7 7 7 3 5 2 1 5 4 5 4 4 7 5 9 13 19 13 5 10 11 11 9 7 10 11 13 14 17 22 26 27 29 31 33 32 33 33 34 39 41 41 43 44 43 42 41 41 41 39 38 37 36 34 32 31 30 30 29 29 29 29 28 27 27 27 28 28 27 26 26 25 24 23 21 20 18 16 15 14 13 11 11 10 9 8 7 6 5 4 3 3 3
5 6 5 7 8 10 10 6 5 3 6 8 3 5 5 7 8 2 7 16 21 16 6 8 10 9 7 7 10 13 15 17 21 29 33 33 36 38 38 36 36 35 35 38 38 39 43 45 45 44 43 43 43 41 40 39 38 36 34 33 32 31 31 31 31 30 29 29 29 29 29 29 29 28 27 26 25 23 21 20 18 17 15 14 13 12 10 10 9 7 6 5 4 3 2 2 2
6 8 5 4 5 9 10 7 7 6 8 6 2 8 12 11 4 5 15 22 20 14 9 10 9 8 7 8 11 13 13 16 20 26 30 33 35 35 35 34 31 31 36 39 38 40 44 45 46 46 46 45 45 44 42 41 39 37 36 35 34 33 33 32 31 31 31 30 31 31 31 31 30 29 28 27 25 24 22 20 18 17 16 14 13 12 10 9 8 6 5 4 3 2 2 2 2
7 8 5 4 6 8 8 7 7 7 6 4 3 12 15 7 1 9 20 22 18 10 8 9 7 8 9 9 11 11 13 15 18 23 28 31 30 28 32 32 31 36 40 39 39 42 43 44 46 48 48 47 46 46 45 43 41 40 39 37 36 35 35 34 33 32 32 32 33 33 33 32 30 29 28 26 25 24 23 21 19 17 16 14 12 11 10 8 7 6 4 3 2 2 1 1 2
5 5 6 7 8 9 6 6 7 5 5 7 8 15 15 3 3 10 18 13 7 7 8 7 4 9 10 9 10 10 12 16 21 22 21 23 25 29 33 31 35 41 38 37 42 43 41 42 46 48 48 47 46 47 47 46 44 43 41 39 38 37 36 35 35 35 34 35 35 35 34 32 29 28 28 27 26 25 23 22 20 18 17 15 13 12 10 9 7 5 3 2 1 1 1 1 1
1 1 7 9 6 10 9 7 6 4 5 8 11 12 12 3 3 13 20 10 0 6 12 10 6 9 9 9 10 8 10 18 22 18 16 21 27 33 33 35 42 41 38 43 45 41 41 43 45 47 48 47 47 48 48 47 46 45 43 41 40 39 38 37 37 37 37 37 36 36 34 32 29 29 28 27 26 26 24 23 20 19 17 15 14 12 11 9 7 5 4 2 1 1 1 1 1
2 3 6 12 7 11 14 7 5 7 4 6 9 5 8 5 10 18 20 12 3 6 12 14 11 10 9 9 9 8 11 15 16 17 24 30 33 35 36 42 45 41 43 45 40 39 43 45 44 46 47 47 48 49 49 48 48 46 45 43 42 41 39 39 39 38 38 37 37 35 33 32 30 30 29 28 27 26 25 23 21 20 18 16 15 13 11 10 7 6 4 3 1 0 0 0 0
5 2 2 9 8 10 10 3 2 4 4 6 8 4 8 10 17 19 15 10 6 7 11 13 12 10 8 8 8 9 11 12 13 22 31 33 34 35 38 43 42 41 42 38 37 42 45 44 44 44 45 48 49 49 49 48 48 47 46 45 43 42 41 41 40 39 39 38 37 35 33 32 32 31 30 29 28 26 25 23 22 20 19 17 16 14 12 10 8 6 5 4 2 1 1 1 1
4 3 1 3 3 8 7 5 2 3 4 7 7 5 10 12 18 16 9 7 6 8 12 12 11 11 9 8 8 10 11 12 18 26 31 33 37 36 38 41 39 40 39 36 42 46 44 43 43 44 46 48 49 49 49 49 49 48 47 46 44 43 42 41 40 39 39 38 36 35 34 34 33 32 31 30 29 27 26 24 23 21 20 18 16 15 12 11 9 7 6 5 3 3 3 3 2
2 2 4 2 2 7 12 6 5 8 5 5 6 5 9 12 17 14 6 5 7 9 13 12 12 12 10 9 8 10 11 12 18 24 28 34 38 36 38 40 38 39 40 42 45 42 41 43 44 44 45 48 49 50 50 49 48 47 47 46 45 44 43 41 40 39 39 38 37 36 36 36 35 33 32 31 30 28 27 25 24 22 20 19 17 15 13 11 10 8 7 6 5 5 4 3 2
2 1 5 5 4 4 9 10 7 8 3 2 7 6 6 9 13 12 5 4 7 8 12 12 13 12 10 9 9 10 11 11 13 18 26 35 37 37 38 40 39 40 42 43 42 40 41 43 44 45 46 49 50 49 48 47 46 46 46 45 44 44 43 42 41 40 39 39 38 38 37 37 36 35 33 32 31 29 28 26 24 23 21 20 18 16 15 13 11 9 8 8 6 5 4 3 2
3 1 4 5 7 5 4 9 7 3 5 5 8 8 10 12 12 12 8 5 5 7 11 12 11 12 10 8 10 12 11 13 13 15 25 32 32 34 37 39 39 38 39 40 41 42 43 43 44 46 46 47 47 47 45 44 44 43 43 43 43 43 42 42 41 40 40 39 39 39 39 38 37 36 34 33 32 30 28 26 25 24 22 20 19 17 16 14 12 10 9 9 7 5 4 2 2
7 5 5 4 5 7 7 9 6 3 5 6 4 8 14 16 13 14 14 11 9 10 12 13 12 13 13 11 12 14 13 16 18 18 24 29 28 31 34 35 36 36 38 39 40 41 41 41 43 44 44 44 44 43 42 41 40 40 40 39 40 40 41 41 41 41 41 40 40 40 40 39 38 37 35 34 33 31 29 28 26 25 23 22 20 19 17 16 14 12 10 8 7 5 2 1 2
12 7 6 6 6 7 8 11 9 5 9 8 7 13 16 15 15 15 16 13 13 14 13 13 13 13 14 13 14 15 14 17 21 22 23 25 26 27 29 31 34 36 37 37 38 40 40 41 41 42 43 43 42 40 39 40 38 38 38 37 38 40 41 42 42 42 41 41 41 41 41 40 39 38 37 36 34 32 30 29 28 26 24 23 22 21 19 16 14 13 10 8 6 5 2 1 2
7 4 6 8 8 10 10 12 12 4 5 10 10 15 17 14 15 15 15 13 13 17 17 15 14 13 13 14 17 17 16 18 21 23 23 23 23 23 24 27 30 32 34 35 37 40 42 42 42 43 43 42 43 43 43 43 42 40 39 40 42 43 43 43 43 44 43 43 42 42 42 41 40 39 38 37 35 33 31 30 29 27 26 25 22 20 18 17 15 13 11 9 7 5 3 1 2
6 6 8 8 7 13 13 13 16 4 2 10 10 15 19 16 15 14 14 13 14 18 19 18 17 15 13 15 20 19 15 16 17 20 21 18 18 19 21 25 27 30 33 35 38 41 42 41 42 43 42 43 46 47 47 47 47 46 45 46 46 45 45 46 46 46 45 43 43 42 42 41 41 40 39 38 36 35 33 32 31 29 27 25 22 20 19 18 16 14 12 11 9 7 5 2 1
7 5 6 8 6 10 12 11 14 4 2 8 9 14 18 14 15 13 14 16 15 16 19 20 18 15 15 17 19 18 16 16 16 18 17 12 14 18 20 23 28 30 32 35 38 39 39 40 41 41 42 44 46 47 47 47 47 46 44 43 43 41 42 45 44 44 44 43 43 43 42 42 42 41 40 38 37 36 34 34 32 30 29 27 25 23 22 20 17 15 13 12 10 9 6 4 2
6 6 6 8 5 7 9 6 7 4 3 7 9 13 14 11 14 13 15 19 15 15 19 19 17 16 19 20 17 17 17 17 17 17 15 8 9 14 17 21 25 28 29 32 35 36 38 41 42 42 43 44 45 45 46 44 41 40 37 34 35 34 34 38 37 37 41 42 43 43 43 43 42 41 40 39 38 37 35 34 32 31 30 28 27 26 24 21 19 17 15 14 12 11 9 5 4
9 9 8 10 10 12 12 5 6 6 4 6 8 14 12 9 12 12 12 14 13 14 16 16 17 19 19 17 16 16 18 18 17 17 16 9 6 11 16 20 22 25 28 31 35 37 38 40 41 42 42 43 44 45 44 41 38 36 33 27 27 27 26 29 32 34 39 42 44 45 45 44 42 41 41 40 39 38 35 34 33 32 31 28 28 26 24 22 19 18 16 15 13 11 10 7 7
10 8 12 17 16 13 12 8 7 6 5 4 3 8 10 5 10 10 8 7 10 10 12 16 19 19 15 13 15 16 16 16 15 15 16 13 8 9 13 17 20 24 29 32 34 36 37 38 39 40 41 42 43 44 44 42 40 39 37 32 30 28 26 30 37 40 42 44 45 45 45 44 44 43 42 41 40 39 37 36 35 33 31 30 28 26 23 22 20 19 17 16 13 11 11 9 10
10 6 12 17 13 10 11 8 4 2 4 3 2 1 10 6 6 10 9 7 10 10 11 16 18 15 11 11 14 13 12 12 12 12 14 14 10 7 10 16 20 25 30 31 31 33 35 36 38 40 41 42 43 44 44 44 42 42 42 40 39 37 35 38 43 41 42 44 43 44 45 45 45 45 44 43 42 41 39 38 37 35 33 31 30 27 25 23 21 20 17 16 15 13 13 12 12
7 5 9 11 9 9 8 5 4 4 3 3 2 4 6 13 7 10 11 10 11 12 14 16 15 13 13 14 14 13 13 12 10 11 14 13 9 7 10 16 22 27 28 28 29 32 35 36 38 41 41 42 43 44 46 46 45 44 44 43 41 42 42 41 39 37 38 41 41 42 43 45 45 45 44 44 43 42 41 40 38 36 34 32 31 29 26 24 22 21 19 18 16 15 13 12 13
6 3 5 7 7 6 5 5 5 1 4 4 4 5 2 13 8 4 5 8 10 14 16 15 14 14 15 14 14 14 13 11 10 12 14 11 7 9 14 18 22 25 25 26 29 32 33 35 37 39 40 41 43 45 47 47 47 46 45 43 41 42 41 37 34 35 35 37 39 40 41 43 44 44 44 43 43 43 42 41 39 38 36 34 32 30 27 26 24 23 22 21 19 16 14 12 13
4 6 5 4 4 3 5 4 3 2 5 5 6 6 2 12 9 3 2 3 8 12 12 12 12 13 13 12 13 13 11 11 12 11 11 9 7 10 15 16 17 20 21 24 26 29 31 33 35 38 40 41 42 45 47 48 47 46 45 44 42 40 37 33 31 33 34 35 38 40 40 42 44 45 45 44 43 43 43 41 40 39 38 36 33 31 29 27 26 25 23 21 19 18 16 14 13
1 5 5 6 4 4 4 1 3 2 7 6 10 12 6 7 6 4 3 4 7 8 6 8 10 11 13 12 12 13 10 10 11 7 6 7 7 8 10 12 13 14 18 21 24 27 30 32 35 37 38 39 41 44 46 47 47 47 46 46 45 41 38 36 34 34 36 37 39 40 41 42 43 45 45 45 44 44 43 42 41 40 38 37 35 33 32 29 28 26 24 22 20 19 17 16 15
2 3 3 3 4 4 5 4 3 2 8 5 9 12 9 8 6 1 4 7 6 7 6 8 10 11 12 11 10 11 9 9 8 8 7 7 6 5 6 9 11 13 17 20 23 27 29 32 34 35 36 37 40 42 45 46 47 47 47 47 47 44 41 40 40 38 39 40 40 39 39 39 41 43 44 45 46 45 44 43 41 40 39 38 37 35 33 31 29 27 26 25 23 21 19 19 18
3 3 2 0 4 3 3 3 1 3 8 4 6 7 5 11 9 4 8 10 9 8 8 9 9 10 11 11 9 8 8 7 6 7 7 6 6 5 5 7 9 13 17 21 23 27 29 31 33 35 36 38 39 41 44 45 46 48 48 47 46 43 41 42 42 40 40 41 40 39 39 40 40 42 44 46 48 47 45 44 43 42 41 40 38 36 34 32 31 30 29 27 25 24 22 21 20
6 5 5 4 2 2 4 4 2 5 7 2 3 5 4 10 7 7 12 13 10 7 8 11 10 10 11 10 8 9 10 8 5 6 6 5 5 5 6 8 9 12 15 19 23 27 29 31 34 36 36 38 39 41 44 45 48 49 47 46 43 41 41 42 41 40 40 40 40 41 42 42 43 45 46 47 48 47 47 46 45 44 43 41 39 37 35 34 33 32 31 29 27 25 23 22 20
6 5 5 5 5 4 4 4 4 7 5 2 1 4 5 5 3 6 10 9 7 6 7 8 8 9 9 8 9 10 11 8 5 6 7 6 7 6 7 10 13 14 15 18 22 26 29 31 35 36 36 38 40 41 43 46 47 46 43 43 42 41 42 41 41 41 40 40 41 41 42 43 44 45 45 45 46 47 47 47 45 44 43 41 40 38 36 35 34 33 32 30 28 26 24 23 21
3 3 4 4 5 4 3 6 6 5 4 3 3 4 5 5 5 7 7 8 8 8 8 6 8 9 6 7 10 9 9 8 7 7 8 9 7 5 7 10 13 15 17 20 23 27 30 32 34 36 38 39 41 42 44 45 44 41 41 42 42 41 41 41 42 42 41 41 42 42 42 42 43 42 42 43 44 45 47 47 46 45 44 42 41 39 38 36 36 35 34 32 29 27 26 25 23
1 3 3 4 2 5 3 6 3 1 4 6 6 8 6 5 9 7 3 4 6 8 9 7 8 9 7 7 9 8 9 9 8 7 8 9 7 6 8 11 13 14 17 21 25 29 31 31 33 36 35 36 40 44 44 43 41 40 41 43 43 43 43 44 44 43 41 40 40 41 41 41 42 41 41 42 43 44 46 46 46 46 45 44 42 41 39 38 37 36 35 33 31 29 28 26 24
4 3 5 2 1 2 2 2 2 2 7 7 7 14 11 6 9 6 6 9 9 7 7 6 6 7 6 7 8 8 9 9 9 9 8 8 7 6 8 10 13 15 17 20 23 26 27 28 31 33 34 36 39 41 41 40 40 40 42 43 45 46 46 46 45 43 41 40 40 42 42 42 42 42 41 41 42 43 44 46 46 46 45 45 44 42 40 39 38 37 35 33 32 31 29 27 25
4 3 2 2 1 3 2 2 2 5 9 5 6 13 11 7 10 9 7 9 9 7 7 6 7 6 6 7 8 9 8 7 8 8 8 7 6 6 6 7 10 14 17 20 21 22 24 26 27 28 31 34 34 35 37 38 40 41 43 44 45 45 45 46 45 43 42 42 44 44 43 43 42 42 41 41 42 43 44 45 45 45 45 45 44 43 41 40 39 38 36 34 33 32 30 28 26
1 2 3 1 3 4 3 3 2 4 8 7 7 9 7 7 9 9 8 8 7 7 7 6 7 6 6 7 8 9 8 7 7 7 8 8 7 5 3 4 9 13 16 18 20 22 25 26 27 28 30 31 30 32 35 38 41 43 43 43 44 46 47 46 45 43 43 45 45 44 43 43 42 41 42 42 42 43 44 45 45 45 45 45 44 43 42 41 39 38 37 36 34 33 30 29 27
2 2 3 3 3 1 1 2 2 3 7 7 7 8 7 5 6 7 8 6 5 6 5 6 7 8 8 7 7 8 7 7 7 6 8 8 7 5 7 7 8 12 15 18 20 22 24 27 31 33 33 33 34 35 37 41 43 44 45 45 46 47 47 46 43 42 43 44 43 43 44 43 42 42 43 43 43 44 45 45 45 45 45 46 45 45 43 42 40 39 38 37 35 33 31 30 29
4 4 4 5 5 3 5 6 5 4 6 7 8 9 6 3 7 11 9 6 5 6 6 6 8 10 12 11 10 10 9 9 8 7 7 7 7 7 9 10 9 12 15 18 20 22 25 30 34 36 35 37 39 40 42 45 44 42 44 46 45 44 42 42 41 41 42 42 42 43 43 42 42 43 44 44 44 44 44 45 45 45 46 46 46 46 45 44 42 41 39 38 36 35 33 32 31
Wind_Direction
81 72 312 304 328 337 360 54 73 318 71 283 272 213 263 235 237 271 261 263 233 244 216 131 154 152 122 171 188 188 173 172 171 146 210 244 149 168 169 179 180 172 173 174 177 177 179 180 172 170 171 172 174 168 162 157 154 154 155 156 155 154 153 155 152 149 150 146 142 139 135 135 137 139 143 147 137 137 135 121 116 109 102 102 102 97 100 104 99 109 117 122 121 114 110 90 89
55 18 338 318 352 21 251 71 95 329 41 314 280 181 259 292 284 235 225 211 207 252 304 117 121 106 80 73 137 144 206 208 183 167 237 153 145 172 172 180 179 175 176 176 180 182 184 182 173 174 177 176 175 170 165 162 160 158 158 158 156 156 156 159 156 153 152 146 146 144 135 133 144 143 146 154 138 134 130 126 129 118 107 100 107 105 99 100 98 113 117 127 146 136 145 91 80
61 13 350 296 5 39 75 43 100 53 51 277 278 233 267 294 235 235 226 216 226 268 347 166 162 114 86 19 52 146 239 256 183 176 277 165 166 181 178 181 180 179 180 179 183 185 187 184 177 178 180 181 181 180 177 174 170 165 167 168 164 166 168 169 166 163 157 150 152 151 142 144 158 149 147 154 140 133 127 137 148 143 135 116 120 134 127 122 120 148 147 160 204 230 242 276 294
49 17 354 17 48 27 67 33 149 127 200 240 273 261 239 223 239 250 245 239 247 323 1 234 269 210 120 246 233 150 250 267 203 175 170 191 190 182 179 180 182 183 183 183 185 187 189 189 187 185 184 190 191 190 189 187 179 170 172 174 171 173 173 171 171 170 168 165 163 161 159 162 163 154 156 148 135 139 144 159 163 158 157 152 160 171 184 199 204 224 241 249 254 267 278 289 290
359 6 1 58 101 25 95 55 102 125 218 195 228 266 234 219 244 256 260 276 270 225 236 181 267 270 148 229 196 185 227 248 214 189 182 198 193 180 179 181 182 185 186 187 188 190 192 193 194 190 190 195 194 192 192 192 182 173 174 176 174 173 174 174 176 177 176 174 168 168 169 169 163 154 151 143 144 160 174 179 177 173 170 174 182 183 187 198 211 227 243 254 261 269 279 288 291
296 64 21 53 94 91 114 202 198 212 229 174 200 265 253 232 234 239 271 307 288 219 208 197 234 241 259 263 205 215 209 127 162 193 200 197 190 181 180 182 184 187 188 189 190 192 195 196 194 190 189 191 192 189 187 185 180 177 176 176 176 176 178 179 180 180 176 172 167 166 167 167 165 158 152 154 164 175 183 183 183 185 181 180 179 183 192 206 223 235 249 260 267 271 276 282 287
73 147 16 62 60 28 119 208 214 236 240 178 196 253 264 258 220 205 267 313 289 243 197 204 196 125 243 285 266 245 217 203 141 189 206 193 186 180 181 183 185 187 188 190 192 193 196 196 192 188 185 186 187 182 179 179 179 179 178 176 176 176 176 176 174 173 169 168 168 170 173 175 174 170 168 171 178 183 185 185 188 189 189 190 187 191 200 212 224 232 242 250 262 269 272 279 286
66 132 16 98 120 9 117 238 235 218 247 218 224 240 258 264 169 166 211 196 217 251 217 232 158 134 263 328 261 258 227 224 219 205 201 192 186 178 182 185 185 187 189 192 192 194 195 194 190 186 184 184 182 178 177 179 180 179 177 175 175 175 174 173 171 170 171 173 176 179 182 184 184 183 182 183 185 185 184 183 184 187 188 190 190 192 196 202 201 197 200 200 206 203 213 253 310
49 49 26 105 161 328 39 276 261 233 254 257 257 249 263 259 165 174 198 233 264 237 248 235 163 197 278 331 259 284 256 225 223 230 195 190 187 180 185 187 188 187 188 191 191 192 192 194 190 185 184 182 181 179 180 180 180 179 177 176 175 176 176 175 175 176 178 180 182 185 188 190 191 191 191 189 188 184 177 174 172 174 175 176 178 175 172 160 147 142 138 133 135 130 122 114 108
42 23 136 105 133 272 301 266 251 254 247 251 266 255 262 232 175 189 186 239 242 195 266 209 158 236 266 264 256 284 243 216 215 220 188 186 187 185 189 191 193 189 188 190 191 191 191 195 191 188 184 182 184 182 182 182 181 180 179 178 177 178 176 177 181 184 184 184 186 188 193 194 194 194 192 190 185 180 172 164 157 156 155 156 156 153 147 138 133 132 129 130 129 124 120 115 111
38 350 102 99 88 223 251 249 258 263 266 294 286 261 248 190 155 196 194 263 230 204 276 126 184 237 227 281 254 249 230 205 208 206 182 184 189 189 191 192 195 194 192 190 191 194 194 196 194 192 186 183 186 183 183 183 182 181 180 179 178 177 176 182 188 190 190 190 192 194 196 196 195 192 188 184 177 170 163 155 149 145 143 142 141 140 134 130 130 131 131 130 127 119 115 107 98
88 331 62 108 193 213 218 241 268 274 295 309 280 280 228 144 138 207 204 249 238 225 246 182 194 170 147 287 260 280 267 206 204 200 183 185 190 191 193 193 195 198 197 194 193 195 197 198 196 195 188 185 186 185 185 184 183 182 181 180 178 178 182 190 195 195 196 195 196 196 196 195 192 187 182 177 169 162 156 150 146 141 138 137 134 132 127 128 129 129 128 120 113 106 98 86 78
121 137 85 150 197 198 216 236 275 300 311 268 245 299 107 138 189 213 180 220 228 202 247 212 162 120 196 258 281 310 271 208 195 192 186 186 191 191 193 195 195 197 198 198 197 198 199 201 200 197 192 188 187 187 188 187 186 184 183 183 184 187 191 196 197 196 197 196 195 193 192 189 184 181 177 171 166 162 157 153 149 145 142 138 137 134 134 137 136 129 120 110 104 98 91 79 72
139 147 113 212 258 127 215 251 285 295 289 262 262 304 157 178 214 186 143 223 237 196 242 207 145 109 239 269 306 301 245 200 187 186 185 185 190 191 194 195 195 197 198 201 201 203 203 203 203 201 196 193 192 191 192 192 191 191 191 192 194 196 197 198 197 196 196 193 191 189 187 183 179 175 172 170 168 164 161 158 155 154 150 147 146 145 145 145 140 133 124 118 113 107 101 89 81
144 131 93 137 324 335 225 232 251 171 255 266 278 311 228 254 158 132 185 217 249 217 235 182 158 197 210 193 238 275 242 189 181 181 181 183 188 191 196 196 197 198 200 203 205 208 207 206 205 202 200 198 197 196 196 196 196 197 197 199 200 198 198 197 196 195 193 190 188 186 184 180 177 174 172 171 170 168 165 162 162 161 158 154 154 151 150 148 142 138 134 132 130 133 134 132 138
116 106 72 355 274 297 229 217 195 157 255 250 265 341 296 273 169 159 225 192 269 260 166 202 189 204 185 181 223 291 233 177 176 178 178 182 187 191 197 198 200 201 203 206 208 211 210 209 207 204 202 201 201 200 200 199 199 199 200 201 201 199 199 198 196 193 191 189 188 186 184 180 178 175 173 173 171 170 168 167 167 164 162 160 159 157 154 150 144 141 141 141 143 145 146 152 153
77 85 75 297 222 217 212 206 199 196 261 269 302 343 186 289 287 229 235 153 253 259 230 231 226 218 190 210 280 311 171 169 171 172 174 180 185 190 196 200 202 203 205 208 210 212 212 211 209 207 205 204 203 202 203 202 201 201 201 201 200 200 199 198 196 193 192 190 190 188 184 182 179 176 175 175 173 172 172 171 169 165 164 163 161 160 157 154 153 152 151 150 151 152 152 156 157
70 93 145 243 206 203 194 193 203 195 266 275 311 329 193 272 295 305 339 268 257 255 262 274 282 268 227 275 312 156 163 167 169 169 172 177 183 189 196 200 202 205 207 208 211 212 213 213 212 211 208 207 206 205 205 204 203 202 202 201 200 199 198 199 198 195 195 192 190 187 185 183 180 179 178 178 176 174 175 172 169 166 165 165 164 164 164 165 166 165 163 162 161 159 161 163 163
128 129 186 234 207 215 201 193 207 207 247 271 295 292 193 239 268 13 302 275 278 267 270 295 281 270 262 262 151 161 164 168 172 173 175 180 186 191 196 201 203 207 208 209 211 212 213 214 214 214 212 209 208 207 207 206 205 204 203 202 201 201 200 201 200 198 196 192 190 188 187 185 184 183 182 182 179 176 176 173 171 169 169 169 168 168 167 166 164 162 158 157 155 153 156 155 154
173 143 226 244 217 235 237 212 223 229 249 294 291 285 185 241 246 113 268 280 279 254 246 237 249 256 247 204 157 167 169 174 179 181 185 189 193 195 196 199 203 208 210 211 211 211 213 214 215 215 214 212 210 208 208 208 207 206 205 203 203 203 203 203 202 199 196 193 191 191 189 188 187 186 185 184 181 179 178 175 173 171 170 167 166 164 159 155 151 150 147 146 146 144 147 142 138
175 161 214 237 197 239 247 217 231 248 236 249 273 331 293 261 205 195 249 297 286 259 215 214 225 239 236 197 178 178 177 185 189 192 195 196 200 202 203 203 206 210 211 212 212 212 213 215 216 215 215 213 212 210 209 209 209 208 206 205 205 205 205 204 202 200 198 195 193 193 192 191 190 189 188 186 183 183 180 177 174 171 169 163 159 156 150 147 144 143 142 143 142 139 138 130 123
162 214 226 229 171 232 253 212 224 240 185 226 277 301 283 271 222 215 205 242 270 264 185 209 221 229 228 191 184 184 185 193 195 202 203 203 206 207 211 211 212 213 211 213 214 214 214 215 216 215 215 214 213 212 211 211 210 210 209 207 206 206 207 205 203 201 199 197 195 196 196 194 193 192 190 188 185 185 182 178 174 169 166 158 153 151 146 143 142 141 141 140 134 129 124 112 101
217 248 246 237 205 230 262 217 211 203 216 262 262 277 292 308 287 223 194 226 253 262 189 203 224 228 225 175 170 185 194 200 201 205 204 206 210 210 212 213 213 213 213 215 216 215 214 215 216 216 215 214 214 213 212 212 212 212 211 209 208 207 207 205 205 203 201 199 198 200 200 197 196 194 192 189 187 185 182 177 172 167 163 156 152 150 146 142 141 139 137 132 120 114 102 83 69
229 255 255 245 224 230 255 258 253 259 258 257 270 317 294 265 281 251 222 243 253 265 253 221 235 231 210 165 178 194 198 202 207 209 208 209 211 213 214 213 214 214 214 217 217 216 216 216 215 216 216 215 214 213 213 213 213 213 212 211 210 209 208 207 207 205 203 201 202 203 202 200 198 196 193 190 187 183 181 176 171 167 163 160 155 153 151 146 144 139 134 126 116 111 89 65 49
225 235 244 248 242 241 256 267 265 260 252 253 294 292 264 240 264 299 263 262 264 268 266 246 241 231 204 194 201 201 205 210 214 215 214 216 217 218 219 216 215 215 218 218 217 217 218 216 215 215 216 216 215 213 213 214 214 214 213 212 211 211 211 210 210 208 206 204 205 206 205 202 200 197 195 192 187 182 180 177 174 170 167 166 162 160 158 154 150 145 139 129 120 108 74 56 39
221 224 248 256 267 267 266 266 245 237 242 207 227 270 268 248 225 275 261 260 274 282 269 258 241 237 223 214 212 204 211 215 217 219 219 222 222 223 224 220 217 219 221 219 218 219 218 216 216 216 217 216 215 213 214 214 215 214 214 213 212 212 212 212 211 210 209 208 208 208 208 205 202 200 197 194 189 184 182 180 177 174 172 170 168 166 162 160 157 150 146 135 117 98 73 56 46
199 218 265 255 269 280 249 244 236 222 243 192 198 260 272 285 133 264 263 248 279 312 290 283 246 243 236 224 222 211 215 220 219 218 220 224 221 225 226 219 219 223 221 220 221 220 218 217 218 217 216 216 214 214 214 215 215 215 215 213 213 213 212 212 211 211 211 210 210 210 210 208 204 203 200 196 191 187 186 183 181 178 177 174 172 172 167 164 162 157 149 136 109 84 56 47 41
199 265 296 279 295 298 257 241 241 205 252 201 189 254 280 332 177 247 264 251 327 318 292 289 261 248 245 233 231 218 221 227 221 213 217 220 219 222 223 219 222 223 220 222 223 219 218 219 218 217 216 215 214 214 215 215 216 216 215 214 213 214 213 213 212 212 212 211 211 210 210 208 206 206 204 200 195 192 189 186 184 181 180 177 174 175 172 168 165 161 154 144 136 77 38 42 29
307 30 322 295 336 309 277 269 233 182 221 190 159 261 284 260 235 243 258 262 281 292 281 282 271 255 248 240 237 228 231 232 219 215 222 224 224 223 223 225 224 221 223 224 221 218 221 220 218 217 214 213 214 215 215 215 216 216 216 214 214 214 213 214 213 213 213 212 212 211 211 208 208 209 207 204 200 196 193 190 186 183 181 179 177 176 175 171 168 164 159 157 160 143 311 225 290
294 27 347 297 340 306 282 31 63 169 191 172 145 266 268 246 251 252 258 268 282 277 268 272 275 270 256 242 240 240 239 231 219 223 228 230 231 228 228 231 227 224 225 222 219 221 222 219 217 215 212 213 214 214 214 214 216 215 216 215 214 214 213 214 214 213 214 213 212 212 212 210 210 211 210 208 204 199 196 192 189 185 182 182 180 178 176 173 169 167 164 161 168 186 211 223 246
300 313 285 303 315 282 298 62 79 253 214 166 159 248 258 259 263 261 263 260 249 257 263 265 268 272 270 253 244 249 245 232 230 233 232 235 237 233 232 235 230 226 224 219 222 224 221 217 215 214 212 213 213 212 213 214 215 215 215 215 214 214 214 214 214 213 214 213 212 213 212 212 212 212 211 210 206 201 199 195 191 187 185 184 182 179 177 175 171 170 168 170 182 193 219 239 251
7 287 281 312 215 271 306 308 203 234 263 139 160 236 258 263 268 270 273 230 215 237 258 264 265 266 270 270 259 256 257 244 241 242 239 239 239 236 234 235 231 227 224 222 224 222 218 217 215 213 212 212 212 212 212 213 213 214 214 214 214 214 214 215 214 214 214 213 212 213 213 213 213 213 212 212 209 204 201 198 193 189 187 185 183 180 178 178 177 176 176 179 191 199 223 245 270
343 227 254 269 250 272 313 301 234 213 246 164 202 227 262 264 265 274 279 216 212 235 258 263 266 267 265 271 270 264 269 264 253 245 242 242 241 237 235 236 233 229 227 224 221 218 217 216 214 213 213 212 212 211 210 210 211 213 213 213 214 214 214 215 215 214 214 213 213 213 214 214 214 214 213 212 211 207 203 199 194 191 190 186 185 182 180 181 181 184 182 178 187 197 209 234 286
290 229 236 247 250 259 295 295 288 203 187 210 230 235 248 258 265 283 293 265 232 238 259 262 263 271 267 264 269 267 269 270 265 249 245 246 244 240 237 236 235 232 230 225 221 220 218 215 213 213 214 212 210 208 207 207 209 211 212 213 213 214 214 215 215 214 214 214 214 214 215 215 215 215 214 213 212 210 205 200 196 193 191 188 186 185 183 183 183 187 186 177 181 189 195 224 295
244 232 243 257 246 249 256 267 292 325 241 217 237 252 251 261 271 281 283 278 268 251 256 264 263 268 269 266 266 265 267 269 267 258 253 252 248 243 238 235 234 232 230 226 222 220 218 215 213 212 211 209 207 206 204 204 206 208 209 211 212 213 214 215 215 215 215 215 215 215 215 215 215 215 215 213 212 211 205 201 199 195 193 191 189 189 187 187 186 186 187 180 176 181 197 245 322
236 232 236 253 259 251 245 255 263 289 282 261 249 257 258 263 268 270 273 274 273 266 259 262 263 264 267 267 265 264 264 264 266 266 262 257 251 245 239 235 232 231 229 225 220 217 216 214 211 209 208 206 202 200 199 199 201 203 204 206 209 212 213 214 216 216 216 216 216 216 215 215 215 215 215 214 212 211 207 203 200 198 196 194 194 194 192 191 191 188 186 181 176 174 177 263 327
253 248 244 248 260 264 256 264 267 249 278 267 249 263 267 264 264 264 269 272 272 272 268 262 261 261 264 263 263 264 261 261 269 275 268 258 254 247 239 234 228 226 225 221 216 214 214 212 208 207 205 202 198 196 196 196 196 197 199 202 206 209 211 212 214 215 216 217 217 217 216 216 215 215 214 213 212 211 208 204 202 200 199 198 199 198 195 192 190 190 187 178 178 178 173 189 327
264 247 262 261 247 262 261 263 271 250 220 266 260 271 272 264 265 264 267 267 260 264 268 268 265 260 261 263 264 264 261 264 272 275 270 258 252 243 232 227 220 218 218 217 215 214 213 210 207 206 202 198 199 198 196 197 198 198 199 203 206 207 208 209 211 213 215 216 217 217 217 216 215 215 215 214 213 212 209 206 204 202 201 199 197 197 195 193 191 193 191 182 178 180 181 167 100
245 242 266 266 247 270 268 251 266 267 191 273 274 268 270 267 265 258 256 257 249 251 258 263 266 264 262 259 262 265 265 269 270 271 274 258 239 234 225 220 218 218 218 216 214 213 209 206 207 205 200 198 199 199 198 199 201 201 202 204 204 205 207 209 211 213 213 214 216 217 217 216 215 215 215 215 214 213 211 208 206 204 203 200 196 195 195 195 194 193 193 193 184 175 173 161 136
220 222 247 261 250 262 264 244 280 298 218 270 285 276 273 266 263 254 246 250 249 248 252 257 261 259 257 255 259 268 268 270 270 272 277 258 222 224 221 219 220 218 218 215 212 209 206 205 205 202 200 199 198 198 199 199 199 199 201 204 204 203 206 208 209 212 213 213 215 215 217 217 216 216 216 215 215 214 212 211 209 206 205 202 199 199 199 197 197 196 195 198 193 180 172 164 154
227 213 224 251 247 242 252 278 338 322 268 273 293 292 282 237 239 250 242 246 249 248 251 258 259 253 254 259 263 264 263 266 269 273 277 266 224 225 225 223 222 218 217 215 212 208 206 205 203 201 199 198 197 198 197 196 195 194 195 197 197 200 203 203 204 210 211 212 213 214 215 216 216 216 216 216 215 215 214 213 212 209 206 203 202 204 204 202 200 199 199 200 199 192 184 171 159
255 216 210 236 247 250 261 290 340 337 301 303 327 306 295 208 198 237 248 244 247 245 246 251 255 255 258 265 263 258 258 262 264 268 274 272 247 226 227 225 220 220 221 220 215 211 207 205 202 199 198 197 197 196 195 194 193 191 189 187 187 190 195 200 205 209 209 209 212 213 213 214 215 216 216 216 216 216 215 214 213 211 208 205 205 205 205 203 200 199 199 199 198 196 191 180 166
271 227 207 228 243 253 259 274 310 275 259 296 69 269 288 280 198 219 235 241 247 246 242 245 251 258 260 259 260 261 260 260 262 262 265 267 253 222 226 224 218 224 227 223 217 212 208 204 200 198 197 196 195 195 193 193 192 191 192 192 192 193 197 206 210 210 209 210 211 212 213 214 215 216 216 216 216 216 216 215 214 212 210 208 206 204 203 203 201 199 198 196 197 196 192 186 174
266 227 196 208 221 235 233 223 223 233 273 296 155 145 273 286 249 195 210 227 244 251 247 249 254 258 258 256 258 262 260 257 260 262 261 261 249 225 229 227 225 231 230 220 214 211 207 203 199 197 196 195 195 194 194 194 194 194 195 196 198 200 204 209 210 209 211 211 210 212 213 213 214 215 216 216 216 216 216 215 214 212 210 209 207 205 203 202 201 198 196 195 197 197 195 191 182
252 173 160 177 191 205 166 165 199 233 339 290 210 138 222 279 270 157 203 227 241 253 248 249 255 256 257 257 257 258 261 263 258 256 262 265 246 228 233 234 234 233 225 216 212 209 205 202 198 195 195 195 194 194 195 196 197 197 197 198 201 205 208 210 209 208 210 210 209 211 212 213 213 214 216 217 217 217 216 215 214 212 210 208 207 205 203 202 201 200 199 198 199 197 195 196 193
225 117 97 79 88 89 107 150 156 81 313 261 190 156 192 279 280 97 78 236 236 249 250 252 255 256 260 262 265 265 266 268 260 252 259 269 260 242 240 240 239 231 220 214 210 205 201 198 195 194 195 195 194 195 196 197 198 199 200 201 203 206 207 207 207 206 207 208 208 209 210 212 212 213 214 216 217 217 217 216 214 212 210 208 206 205 203 202 202 203 202 202 202 198 195 195 197
149 101 59 29 26 32 59 58 89 80 282 244 180 179 180 277 284 135 159 232 232 240 254 265 263 261 263 262 264 267 264 264 272 283 291 293 288 264 244 236 231 221 212 207 203 200 197 195 194 194 195 196 196 196 197 198 199 200 202 204 205 206 204 202 203 203 204 205 206 207 208 210 211 212 213 214 216 217 217 216 215 214 211 209 207 205 204 203 203 203 202 202 201 200 199 196 197
99 89 60 14 328 5 29 351 55 145 263 242 180 178 175 234 261 199 264 275 259 236 236 250 256 263 268 265 263 269 274 281 307 327 322 311 296 273 248 231 217 204 198 198 198 195 194 193 193 194 195 197 197 197 198 200 201 203 205 207 208 207 205 203 203 203 203 204 205 205 205 208 209 211 212 212 214 215 215 215 214 214 212 210 208 206 205 204 204 203 202 202 201 199 200 199 200
126 117 124 323 310 342 353 307 95 205 255 247 171 165 196 244 255 267 270 271 257 237 230 240 248 262 271 273 277 290 300 308 324 316 301 300 293 283 272 247 218 202 196 195 194 192 192 192 192 194 197 198 199 199 201 202 204 206 208 209 210 209 207 208 208 207 207 206 206 204 204 205 206 208 210 211 212 212 213 214 214 213 213 211 210 207 205 204 203 203 203 203 203 200 201 203 204
160 157 162 166 207 251 259 264 274 260 266 275 164 173 245 277 272 231 236 248 254 244 237 241 247 260 272 281 296 302 296 300 310 295 292 298 285 273 264 249 231 218 206 198 194 192 191 191 193 196 199 200 200 202 203 204 207 209 210 210 211 210 210 211 212 211 211 210 208 207 208 207 207 209 210 211 212 212 212 215 215 215 214 212 211 209 207 206 204 204 204 204 204 203 203 204 206
185 168 147 172 191 194 219 233 248 262 276 317 218 191 229 273 273 220 229 254 277 266 247 253 265 269 279 294 293 286 287 302 326 313 299 278 254 239 236 233 226 220 211 204 199 194 193 194 196 197 199 201 202 203 205 207 210 211 211 212 212 212 213 214 215 215 215 214 212 211 211 211 211 213 213 212 213 212 213 214 215 215 215 213 212 210 208 207 205 205 205 205 204 202 203 204 204
234 130 114 220 207 171 221 243 234 251 291 289 235 223 230 246 269 260 254 270 279 274 275 296 298 289 301 303 286 286 298 309 312 298 284 273 263 247 237 233 227 218 208 205 203 200 199 198 199 201 202 203 203 205 208 210 212 212 213 214 214 214 215 215 217 218 217 217 216 214 215 215 215 215 214 214 213 213 213 214 214 215 215 214 213 211 210 208 206 206 205 204 203 202 203 204 204
212 124 188 242 174 142 223 272 282 303 266 253 242 260 278 299 288 290 338 315 291 286 288 291 289 292 303 292 282 290 294 292 288 281 277 278 276 260 243 236 231 223 213 209 208 207 205 203 203 204 205 205 206 208 210 211 212 213 215 216 216 216 216 217 218 218 218 218 218 218 218 218 218 217 216 215 214 214 214 214 213 213 214 214 213 212 211 210 208 207 206 205 203 202 203 204 204
133 177 220 236 49 123 167 265 316 256 246 246 243 259 279 303 283 302 2 329 306 292 285 290 296 302 300 285 281 279 276 283 288 282 277 273 268 260 249 239 231 225 221 219 217 215 213 212 210 208 207 209 211 211 211 212 213 215 217 217 218 218 218 219 219 219 219 218 219 220 220 220 219 218 216 215 214 214 213 213 213 213 213 213 212 212 211 210 209 208 207 206 204 202 202 202 204
148 216 244 120 211 251 164 175 225 236 248 252 228 246 265 267 264 281 294 283 283 285 292 305 307 308 309 297 291 287 287 295 293 287 291 293 290 286 275 263 253 241 231 225 221 220 220 220 220 219 217 216 217 216 215 215 216 218 220 220 220 220 220 221 220 219 218 218 220 220 219 219 219 217 216 215 214 213 212 212 212 212 212 211 211 211 211 210 209 208 207 206 204 203 203 202 203
152 284 328 77 191 211 193 190 187 229 251 258 238 236 246 247 256 269 256 237 252 280 294 294 282 284 291 289 292 297 300 299 297 302 309 304 291 284 311 304 277 262 249 236 225 221 222 222 223 225 225 224 224 223 221 220 220 221 222 223 223 222 222 223 221 219 219 219 220 219 219 219 218 216 215 214 214 213 212 212 212 211 211 210 210 210 210 209 208 208 208 206 204 203 203 203 202
176 235 263 251 230 221 256 232 180 223 250 255 253 245 239 252 271 262 237 216 231 250 252 264 280 290 285 274 269 275 283 291 294 298 299 302 303 324 3 348 294 266 254 242 231 225 223 224 224 224 225 225 225 225 225 225 224 223 223 224 224 224 223 222 222 221 221 221 220 219 219 218 216 216 215 214 213 213 212 211 211 211 210 210 209 208 209 208 207 208 208 206 204 203 203 203 201
175 201 226 242 242 253 273 255 212 209 240 246 254 256 248 269 292 279 259 239 244 228 220 260 293 297 290 286 279 278 287 288 281 272 276 293 311 329 347 337 304 270 253 242 235 229 225 225 226 225 224 225 225 225 225 227 226 225 226 226 226 226 224 222 222 222 222 222 221 220 219 217 216 216 215 214 213 212 211 211 210 210 210 209 209 208 207 207 206 207 206 205 204 203 203 201 201